Cartersville, GA

7:20 PM EST on February 24, 2017 (GMT -0500)
Cartersville

Weather History for KVPC - March, 2014

Change the Weather History Date:

Wednesday, March 5, 2014

  Actual Average Record
Temperature  
Mean Temperature 49 °F 49 °F  
Max Temperature 60 °F 61 °F 75 °F (2004)
Min Temperature 38 °F 37 °F 16 °F (2002)
Degree Days  
Heating Degree Days 16 16  
Month to date heating degree days 85 83  
Since 1 July heating degree days 2879 2695  
Cooling Degree Days 0 0  
Month to date cooling degree days 0 0  
Year to date cooling degree days 0 0  
Moisture  
Dew Point 30 °F    
Average Humidity 61    
Maximum Humidity 85    
Minimum Humidity 37    
Precipitation  
Precipitation 0.00 in 0.15 in 2.00 in (1989)
Month to date precipitation 0.39 0.78  
Year to date precipitation 6.11 10.28  
Sea Level Pressure  
Sea Level Pressure 30.13 in    
Wind  
Wind Speed 2 mph (NNE)    
Max Wind Speed 12 mph    
Max Gust Speed 14 mph    
Visibility 10 miles    
Events      
T = Trace of Precipitation, MM = Missing Value Source: NWS Daily Summary

Daily Weather History Graph

Daily Weather History Graph

Search for Another Location

Airport or City:

Trip Planner

Search our weather history database for the weather conditions in past years. The results will help you decide how hot, cold, wet, or windy it might be!

Date:

Astronomy

Mar. 05, 2014 Rise Set
Actual Time 7:03 AM EST 6:39 PM EST
Civil Twilight 6:38 AM EST 7:04 PM EST
Nautical Twilight 6:09 AM EST 7:33 PM EST
Astronomical Twilight 5:40 AM EST 8:02 PM EST
Moon 9:41 AM EST (3/5) 11:32 PM EST (3/5)
Length of Visible Light 12h 26m
Length of Day
11h 36m
Waxing Crescent, 23% of the Moon is Illuminated
Mar 5
Waxing Crescent
Mar 8
First Quarter
Mar 16
Full
Mar 23
Last Quarter
Mar 30
New

Hourly Weather History & Observations

Time (EST) Temp. Windchill Dew Point Humidity Pressure Visibility Wind Dir Wind Speed Gust Speed Precip Events Conditions
12:53 AM 39.0 °F 36.8 °F 25.0 °F 57% 30.15 in 10.0 mi Variable 3.5 mph - N/A   Partly Cloudy
1:53 AM 39.0 °F 36.8 °F 23.0 °F 53% 30.17 in 10.0 mi ENE 3.5 mph - N/A   Scattered Clouds
2:53 AM 39.0 °F - 25.0 °F 57% 30.15 in 10.0 mi Calm Calm - N/A   Mostly Cloudy
3:53 AM 37.9 °F - 24.1 °F 57% 30.14 in 10.0 mi Calm Calm - N/A   Clear
4:53 AM 32.0 °F - 27.0 °F 82% 30.15 in 10.0 mi Calm Calm - N/A   Clear
5:53 AM 30.9 °F - 25.0 °F 79% 30.17 in 10.0 mi Calm Calm - N/A   Clear
6:53 AM 30.0 °F - 25.0 °F 82% 30.15 in 10.0 mi Calm Calm - N/A   Clear
7:53 AM 30.9 °F - 26.1 °F 82% 30.17 in 10.0 mi Calm Calm - N/A   Clear
8:53 AM 39.0 °F - 25.0 °F 57% 30.20 in 10.0 mi Calm Calm - N/A   Clear
9:53 AM 43.0 °F 39.5 °F 23.0 °F 45% 30.18 in 10.0 mi ENE 5.8 mph - N/A   Clear
11:53 AM 48.9 °F - 28.0 °F 44% 30.15 in 10.0 mi North 8.1 mph - N/A   Clear
12:53 PM 52.0 °F - 32.0 °F 47% 30.12 in 10.0 mi NNE 8.1 mph - N/A   Clear
1:53 PM 55.9 °F - 34.0 °F 44% 30.09 in 10.0 mi North 4.6 mph - N/A   Clear
2:53 PM 57.0 °F - 34.0 °F 42% 30.08 in 10.0 mi NNE 6.9 mph - N/A   Clear
3:53 PM 59.0 °F - 34.0 °F 39% 30.07 in 10.0 mi Calm Calm - N/A   Clear
4:53 PM 59.0 °F - 34.0 °F 39% 30.06 in 10.0 mi NNE 5.8 mph - N/A   Clear
5:53 PM 55.9 °F - 35.1 °F 45% 30.08 in 10.0 mi Calm Calm - N/A   Clear
6:53 PM 46.9 °F - 37.9 °F 71% 30.08 in 10.0 mi Calm Calm - N/A   Clear
7:53 PM 44.1 °F - 37.0 °F 76% 30.10 in 10.0 mi Calm Calm - N/A   Clear
8:53 PM 42.1 °F - 37.0 °F 82% 30.11 in 10.0 mi Calm Calm - N/A   Clear
9:53 PM 42.1 °F - 37.0 °F 82% 30.13 in 10.0 mi Calm Calm - N/A   Clear
10:53 PM 39.9 °F - 36.0 °F 86% 30.12 in 10.0 mi Calm Calm - N/A   Clear
11:53 PM 39.0 °F 36.8 °F 36.0 °F 89% 30.12 in 10.0 mi NNE 3.5 mph - N/A   Clear